Regional Weather Roundup
Issued by NWS Kansas City/Pleasant Hill, MO

Current Version | Previous Version | Text Only | Print | Product List | Glossary On
Versions: 1 2 3 4 5 6 7 8 9 10 11 12 13 14 15 16 17 18 19 20 21 22 23 24 25 26 27
000
ASUS43 KEAX 272310
RWREAX

WEATHER ROUNDUP FOR EASTERN KANSAS AND NORTHWEST MISSOURI
NATIONAL WEATHER SERVICE KANSAS CITY/PLEASANT HILL MO
600 PM CDT TUE JUN 27 2017

KSZ040-057-103>105-MOZ028-029-037-043-280000-
...KANSAS CITY METROPOLITAN AREA...

CITY           SKY/WX    TMP DP  RH WIND       PRES   REMARKS
K.C. INTL      PTSUNNY   78  66  66 S13       29.93F
K.C. DOWNTOWN  CLOUDY    83  65  54 S15G21    29.92F
LEES SUMMIT    CLOUDY    80  65  59 S14       29.95F
OLATHE - IXD   CLOUDY    81  66  60 S14       29.94F
OLATHE - OJC   MOSUNNY   79  66  64 S16G23    29.95F
LAWRENCE       PTSUNNY   80  68  66 SE13      29.91F

$$

MOZ001>008-011>017-020>025-030>033-038>040-044>046-053-054-280000-
...NORTHERN AND CENTRAL MISSOURI...

CITY           SKY/WX    TMP DP  RH WIND       PRES   REMARKS
ST. JOSEPH     CLOUDY    79  66  64 S14       29.91F
MOSBY          CLOUDY    79  63  57 SE8       29.94F
WARRENSBURG    PTSUNNY   79  63  57 SE8       29.96F
WHITEMAN AFB   MOSUNNY   80  67  64 S12       29.96
CLINTON        PTSUNNY   81  66  61 S8        29.98F
SEDALIA        MOSUNNY   79  67  66 SE8       29.99F
WARSAW         NOT AVBL
CHILLICOTHE      N/A     79  61  53 S10       29.97F
KIRKSVILLE     SUNNY     79  54  41 SE12      29.99F

$$

MOZ041-047>049-056>058-063>065-088>090-097-280000-
...EASTERN AND SOUTHERN MISSOURI...

CITY           SKY/WX    TMP DP  RH WIND       PRES   REMARKS
ST. LOUIS INTL MOSUNNY   82  48  30 S6        30.04F
SPIRIT OF STL  MOSUNNY   81  49  32 S3        30.02F
COLUMBIA       SUNNY     79  60  52 SE9       30.00F
JEFFERSON CITY SUNNY     82  58  43 SE10      29.99F
ROLLA          MOSUNNY   80  61  52 SE8       30.02F
OSAGE BEACH    MOSUNNY   79  64  60 SE8       30.01F
SPRINGFIELD    MOSUNNY   81  63  54 S13       30.00F
BRANSON        PTSUNNY   82  63  51 SE12      30.04F
JOPLIN         MOSUNNY   85  66  53 S12       29.97F
WEST PLAINS    MOSUNNY   79  62  56 SE7       30.06F

$$

IAZ060-094-KSZ022-034>040-054-083-096-NEZ052-066-093-280000-
...KANSAS...SOUTHEAST NEBRASKA AND IOWA...

CITY           SKY/WX    TMP DP  RH WIND       PRES   REMARKS
TOPEKA         MOSUNNY   80  69  69 SE18G25   29.90F
MANHATTAN      MOSUNNY   86  71  60 S15G23    29.83F HX  91
EMPORIA        SUNNY     83  67  58 SE20G28   29.89F
CHANUTE        SUNNY     86  63  45 S17G23    29.94F
WICHITA        MOSUNNY   89  68  49 SE25G32   29.85F HX  93
OMAHA          PTSUNNY   81  63  54 SE25G32   29.84F
LINCOLN        PTSUNNY   82  67  60 S22       29.82F
FALLS CITY     MOSUNNY   80  66  62 S18G26    29.87F
LAMONI         MOSUNNY   78  59  51 S10G21    29.94F
DES MOINES     MOSUNNY   80  52  37 SE15      29.92F

$$





USA.gov is the U.S. government's official web portal to all federal, state and local government web resources and services.